COSMOS 2251 DEB, 37132

Orbit data source: Space-Track

COSMOS 2251 DEB, 37132 is space debris in LEO originally from a launch on Wed, 16 Jun 1993 UTC launched from the Plesetsk Missile And Space Complex (PKMTR). The debris from Iridium 33, an American commercial communications satellite, has been tracked extensively since its accidental collision with the defunct Russian satellite Cosmos 2251 in 2009. This event, occurring at high speed in low Earth orbit (LEO), generated thousands of pieces of space debris, significantly increasing the risk of further collisions. The Iridium 33 debris cloud has impacted space traffic management and orbital debris mitigation strategies, making it a subject of ongoing study in space situational awareness.

Loading next visibility...
Identifier
37132, 1993-036BHE
Orbit
LEO
Country
Flag of CISCIS
Related business
Manufacturer
Unknown
Mission
Spacecraft
Bus & Motor
Unknown
Mass
Unknown
Launch date (UTC)
1993-06-16 (33 years ago)
Launch vehicle
Unknown
Launch site
Plesetsk Missile And Space Complex (PKMTR)
Object type
Payload
Rocket body
Debris
Shape & HBR
Unknown shape, 0.1 m
Radar Cross Section
Small (<0.1 m²)

Expand to show TLE details & history
Last TLE update: 1 day ago

TLE from 1 day ago
0 COSMOS 2251 DEB
1 37132U 93036BHE 26032.98837725  .00008135  00000-0  10925-2 0  9995
2 37132  74.0037 133.1709 0043397 278.8272  80.7990 14.78795450631738
Epoch: 2026-02-01T23:43Z
TLE epoch observation values (Epoch: 2026-02-01T23:43:15.794Z)
Latitude
-0.00008°
Longitude
5.16495°
Altitude
631.053 km
Speed
7.546 km/s
True Right ascension
08h 52m 41s
True Declination
0° 00' 00"
Sunlit
Object was in full shadow at epoch
Visualization orbit readout
Latitude
Unknown
Longitude
Unknown
Altitude
Unknown
Speed
Unknown
Apparent Right ascension
Unknown
Apparent Declination
Unknown
Sunlit
N/A
Visualization observer readout
Local Sidereal Time
07:23:34
Azimuth
Unknown
Elevation
Unknown
Doppler factor
Unknown
Orbital elements
Apogee altitude
661.125 km
Perigee altitude
600.292 km
Semi-major axis
7,008.846 km
Eccentricity
0.00434
Inclination
74.0037°
RAAN
133.1709°
Arg. of periapsis
278.8272°
True anomaly
81.29031°
Mean anomaly
80.799°
Eccentric anomaly
81.04462°
Mean motion
3.69891 °/min
Orbital period
97.33 mins
BSTAR
0.0010925
Loading maneuver chart data...
Computing Atmospheric mass density...

Documentation

Showing up to 5 results
|